Location: Daytona Beach
(29.2106°N, 81.0231°W)
Time: 16:25:34
(UTC-04:00)

ISS - Visible Passes

Search period start: 23 June 2021 00:00
Search period end: 03 July 2021 00:00
Orbit: 417 x 422 km, 51.6° (Epoch: 23 June)

Date Brightness Start Highest point End Pass type
(mag) Time Alt. Az. Time Alt. Az. Time Alt. Az.
23 Jun -3.7 05:54:25 10° SW 05:57:45 69° NW 06:01:06 10° NE visible
24 Jun -3.3 05:08:50 28° SSW 05:10:20 55° SE 05:13:38 10° NE visible
25 Jun -2.0 04:23:24 26° ESE 04:23:24 26° ESE 04:25:52 10° ENE visible
25 Jun -1.8 05:57:14 10° W 05:59:46 20° NW 06:02:18 10° N visible
26 Jun -2.7 05:10:53 24° W 05:12:12 34° NW 05:15:19 10° NNE visible
27 Jun -3.1 04:25:19 53° NNE 04:25:19 53° NNE 04:28:04 10° NE visible
28 Jun -0.9 03:39:41 17° NE 03:39:41 17° NE 03:40:36 10° NE visible
28 Jun -1.2 05:12:57 10° WNW 05:14:20 12° NW 05:15:42 10° N visible
29 Jun -1.6 04:26:56 19° NNW 04:26:56 19° NNW 04:29:14 10° N visible
30 Jun -0.9 03:41:11 17° NNE 03:41:11 17° NNE 03:42:14 10° NNE visible
02 Jul -0.5 03:42:29 10° NNW 03:42:29 10° NNW 03:42:35 10° N visible
